Year,Month,Day,Hour,Minute,Value (Times are PST for temperature in C)
2010,07,28,00,00,14.80
2010,07,28,00,01,14.80
2010,07,28,00,02,14.80
2010,07,28,00,03,14.80
2010,07,28,00,04,14.80
2010,07,28,00,05,14.80
2010,07,28,00,06,14.70
2010,07,28,00,07,14.70
2010,07,28,00,08,14.70
2010,07,28,00,09,14.70
2010,07,28,00,10,14.60
2010,07,28,00,11,14.60
2010,07,28,00,12,14.60
2010,07,28,00,13,14.60
2010,07,28,00,14,14.60
2010,07,28,00,15,14.50
2010,07,28,00,16,14.50
2010,07,28,00,17,14.50
2010,07,28,00,18,14.40
2010,07,28,00,19,14.40
2010,07,28,00,20,14.40
2010,07,28,00,21,14.40
2010,07,28,00,22,14.40
2010,07,28,00,23,14.40
2010,07,28,00,24,14.30
2010,07,28,00,25,14.30
2010,07,28,00,26,14.30
2010,07,28,00,27,14.30
2010,07,28,00,28,14.30
2010,07,28,00,29,14.20
2010,07,28,00,30,14.20
2010,07,28,00,31,14.20
2010,07,28,00,32,14.20
2010,07,28,00,33,14.20
2010,07,28,00,34,14.20
2010,07,28,00,35,14.10
2010,07,28,00,36,14.10
2010,07,28,00,37,14.10
2010,07,28,00,38,14.10
2010,07,28,00,39,14.10
2010,07,28,00,40,14.10
2010,07,28,00,41,14.00
2010,07,28,00,42,14.00
2010,07,28,00,43,14.00
2010,07,28,00,44,14.00
2010,07,28,00,45,13.90
2010,07,28,00,46,13.90
2010,07,28,00,47,13.90
2010,07,28,00,48,13.90
2010,07,28,00,49,13.90
2010,07,28,00,50,13.90
2010,07,28,00,51,13.90
2010,07,28,00,52,13.90
2010,07,28,00,53,13.90
2010,07,28,00,54,13.90
2010,07,28,00,55,13.90
2010,07,28,00,56,13.90
2010,07,28,00,57,13.90
2010,07,28,00,58,13.90
2010,07,28,00,59,13.90
2010,07,28,01,00,13.90
2010,07,28,01,01,13.90
2010,07,28,01,02,13.90
2010,07,28,01,03,13.90
2010,07,28,01,04,13.90
2010,07,28,01,05,13.90
2010,07,28,01,06,13.90
2010,07,28,01,07,13.90
2010,07,28,01,08,14.00
2010,07,28,01,09,14.00
2010,07,28,01,10,14.00
2010,07,28,01,11,14.10
2010,07,28,01,12,14.10
2010,07,28,01,13,14.10
2010,07,28,01,14,14.10
2010,07,28,01,15,14.10
2010,07,28,01,16,14.10
2010,07,28,01,17,14.20
2010,07,28,01,18,14.20
2010,07,28,01,19,14.30
2010,07,28,01,20,14.30
2010,07,28,01,21,14.30
2010,07,28,01,22,14.30
2010,07,28,01,23,14.40
2010,07,28,01,24,14.40
2010,07,28,01,25,14.40
2010,07,28,01,26,14.40
2010,07,28,01,27,14.50
2010,07,28,01,28,14.50
2010,07,28,01,29,14.50
2010,07,28,01,30,14.50
2010,07,28,01,31,14.50
2010,07,28,01,32,14.50
2010,07,28,01,33,14.50
2010,07,28,01,34,14.50
2010,07,28,01,35,14.60
2010,07,28,01,36,14.60
2010,07,28,01,37,14.60
2010,07,28,01,38,14.60
2010,07,28,01,39,14.60
2010,07,28,01,40,14.60
2010,07,28,01,41,14.60
2010,07,28,01,42,14.60
2010,07,28,01,43,14.60
2010,07,28,01,44,14.60
2010,07,28,01,45,14.60
2010,07,28,01,46,14.60
2010,07,28,01,47,14.60
2010,07,28,01,48,14.60
2010,07,28,01,49,14.60
2010,07,28,01,50,14.60
2010,07,28,01,51,14.60
2010,07,28,01,52,14.60
2010,07,28,01,53,14.60
2010,07,28,01,54,14.60
2010,07,28,01,55,14.60
2010,07,28,01,56,14.60
2010,07,28,01,57,14.60
2010,07,28,01,58,14.60
2010,07,28,01,59,14.60
2010,07,28,02,00,14.60
2010,07,28,02,01,14.60
2010,07,28,02,02,14.60
2010,07,28,02,03,14.50
2010,07,28,02,04,14.50
2010,07,28,02,05,14.50
2010,07,28,02,06,14.50
2010,07,28,02,07,14.50
2010,07,28,02,08,14.50
2010,07,28,02,09,14.50
2010,07,28,02,10,14.40
2010,07,28,02,11,14.40
2010,07,28,02,12,14.40
2010,07,28,02,13,14.40
2010,07,28,02,14,14.40
2010,07,28,02,15,14.40
2010,07,28,02,16,14.40
2010,07,28,02,17,14.30
2010,07,28,02,18,14.30
2010,07,28,02,19,14.30
2010,07,28,02,20,14.30
2010,07,28,02,21,14.30
2010,07,28,02,22,14.30
2010,07,28,02,23,14.30
2010,07,28,02,24,14.20
2010,07,28,02,25,14.20
2010,07,28,02,26,14.20
2010,07,28,02,27,14.20
2010,07,28,02,28,14.20
2010,07,28,02,29,14.20
2010,07,28,02,30,14.20
2010,07,28,02,31,14.10
2010,07,28,02,32,14.10
2010,07,28,02,33,14.10
2010,07,28,02,34,14.10
2010,07,28,02,35,14.10
2010,07,28,02,36,14.10
2010,07,28,02,37,14.00
2010,07,28,02,38,14.00
2010,07,28,02,39,14.00
2010,07,28,02,40,14.00
2010,07,28,02,41,13.90
2010,07,28,02,42,13.90
2010,07,28,02,43,13.90
2010,07,28,02,44,13.90
2010,07,28,02,45,13.90
2010,07,28,02,46,13.90
2010,07,28,02,47,13.90
2010,07,28,02,48,13.90
2010,07,28,02,49,13.90
2010,07,28,02,50,13.80
2010,07,28,02,51,13.80
2010,07,28,02,52,13.80
2010,07,28,02,53,13.80
2010,07,28,02,54,13.80
2010,07,28,02,55,13.80
2010,07,28,02,56,13.80
2010,07,28,02,57,13.70
2010,07,28,02,58,13.70
2010,07,28,02,59,13.70
2010,07,28,03,00,13.70
2010,07,28,03,01,13.70
2010,07,28,03,02,13.70
2010,07,28,03,03,13.70
2010,07,28,03,04,13.70
2010,07,28,03,05,13.60
2010,07,28,03,06,13.60
2010,07,28,03,07,13.60
2010,07,28,03,08,13.60
2010,07,28,03,09,13.60
2010,07,28,03,10,13.60
2010,07,28,03,11,13.50
2010,07,28,03,12,13.50
2010,07,28,03,13,13.50
2010,07,28,03,14,13.50
2010,07,28,03,15,13.50
2010,07,28,03,16,13.40
2010,07,28,03,17,13.40
2010,07,28,03,18,13.40
2010,07,28,03,19,13.40
2010,07,28,03,20,13.40
2010,07,28,03,21,13.40
2010,07,28,03,22,13.40
2010,07,28,03,23,13.40
2010,07,28,03,24,13.40
2010,07,28,03,25,13.40
2010,07,28,03,26,13.30
2010,07,28,03,27,13.30
2010,07,28,03,28,13.30
2010,07,28,03,29,13.30
2010,07,28,03,30,13.30
2010,07,28,03,31,13.30
2010,07,28,03,32,13.20
2010,07,28,03,33,13.20
2010,07,28,03,34,13.20
2010,07,28,03,35,13.20
2010,07,28,03,36,13.20
2010,07,28,03,37,13.20
2010,07,28,03,38,13.20
2010,07,28,03,39,13.10
2010,07,28,03,40,13.10
2010,07,28,03,41,13.10
2010,07,28,03,42,13.10
2010,07,28,03,43,13.10
2010,07,28,03,44,13.10
2010,07,28,03,45,13.10
2010,07,28,03,46,13.10
2010,07,28,03,47,13.10
2010,07,28,03,48,13.00
2010,07,28,03,49,13.00
2010,07,28,03,50,13.00
2010,07,28,03,51,12.90
2010,07,28,03,52,12.90
2010,07,28,03,53,12.90
2010,07,28,03,54,12.80
2010,07,28,03,55,12.80
2010,07,28,03,56,12.80
2010,07,28,03,57,12.80
2010,07,28,03,58,12.70
2010,07,28,03,59,12.70
2010,07,28,04,00,12.70
2010,07,28,04,01,12.60
2010,07,28,04,02,12.60
2010,07,28,04,03,12.60
2010,07,28,04,04,12.50
2010,07,28,04,05,12.50
2010,07,28,04,06,12.40
2010,07,28,04,07,12.40
2010,07,28,04,08,12.40
2010,07,28,04,09,12.40
2010,07,28,04,10,12.40
2010,07,28,04,11,12.30
2010,07,28,04,12,12.30
2010,07,28,04,13,12.30
2010,07,28,04,14,12.30
2010,07,28,04,15,12.30
2010,07,28,04,16,12.20
2010,07,28,04,17,12.20
2010,07,28,04,18,12.20
2010,07,28,04,19,12.20
2010,07,28,04,20,12.20
2010,07,28,04,21,12.20
2010,07,28,04,22,12.20
2010,07,28,04,23,12.10
2010,07,28,04,24,12.10
2010,07,28,04,25,12.10
2010,07,28,04,26,12.10
2010,07,28,04,27,12.10
2010,07,28,04,28,12.10
2010,07,28,04,29,12.10
2010,07,28,04,30,12.10
2010,07,28,04,31,12.10
2010,07,28,04,32,12.00
2010,07,28,04,33,12.00
2010,07,28,04,34,12.00
2010,07,28,04,35,12.00
2010,07,28,04,36,11.90
2010,07,28,04,37,11.90
2010,07,28,04,38,11.90
2010,07,28,04,39,11.90
2010,07,28,04,40,11.90
2010,07,28,04,41,11.90
2010,07,28,04,42,11.90
2010,07,28,04,43,11.90
2010,07,28,04,44,11.90
2010,07,28,04,45,11.80
2010,07,28,04,46,11.80
2010,07,28,04,47,11.80
2010,07,28,04,48,11.80
2010,07,28,04,49,11.80
2010,07,28,04,50,11.80
2010,07,28,04,51,11.80
2010,07,28,04,52,11.80
2010,07,28,04,53,11.80
2010,07,28,04,54,11.70
2010,07,28,04,55,11.70
2010,07,28,04,56,11.70
2010,07,28,04,57,11.70
2010,07,28,04,58,11.70
2010,07,28,04,59,11.70
2010,07,28,05,00,11.70
2010,07,28,05,01,11.60
2010,07,28,05,02,11.60
2010,07,28,05,03,11.60
2010,07,28,05,04,11.60
2010,07,28,05,05,11.60
2010,07,28,05,06,11.60
2010,07,28,05,07,11.50
2010,07,28,05,08,11.50
2010,07,28,05,09,11.50
2010,07,28,05,10,11.40
2010,07,28,05,11,11.40
2010,07,28,05,12,11.40
2010,07,28,05,13,11.40
2010,07,28,05,14,11.40
2010,07,28,05,15,11.40
2010,07,28,05,16,11.40
2010,07,28,05,17,11.30
2010,07,28,05,18,11.30
2010,07,28,05,19,11.30
2010,07,28,05,20,11.30
2010,07,28,05,21,11.30
2010,07,28,05,22,11.30
2010,07,28,05,23,11.30
2010,07,28,05,24,11.30
2010,07,28,05,25,11.30
2010,07,28,05,26,11.30
2010,07,28,05,27,11.30
2010,07,28,05,28,11.30
2010,07,28,05,29,11.30
2010,07,28,05,30,11.30
2010,07,28,05,31,11.30
2010,07,28,05,32,11.30
2010,07,28,05,33,11.30
2010,07,28,05,34,11.30
2010,07,28,05,35,11.30
2010,07,28,05,36,11.30
2010,07,28,05,37,11.30
2010,07,28,05,38,11.30
2010,07,28,05,39,11.30
2010,07,28,05,40,11.30
2010,07,28,05,41,11.30
2010,07,28,05,42,11.30
2010,07,28,05,43,11.30
2010,07,28,05,44,11.40
2010,07,28,05,45,11.40
2010,07,28,05,46,11.40
2010,07,28,05,47,11.40
2010,07,28,05,48,11.40
2010,07,28,05,49,11.40
2010,07,28,05,50,11.40
2010,07,28,05,51,11.40
2010,07,28,05,52,11.40
2010,07,28,05,53,11.40
2010,07,28,05,54,11.40
2010,07,28,05,55,11.40
2010,07,28,05,56,11.40
2010,07,28,05,57,11.40
2010,07,28,05,58,11.40
2010,07,28,05,59,11.40
2010,07,28,06,00,11.40
2010,07,28,06,01,11.50
2010,07,28,06,02,11.50
2010,07,28,06,03,11.50
2010,07,28,06,04,11.50
2010,07,28,06,05,11.50
2010,07,28,06,06,11.50
2010,07,28,06,07,11.50
2010,07,28,06,08,11.50
2010,07,28,06,09,11.60
2010,07,28,06,10,11.60
2010,07,28,06,11,11.60
2010,07,28,06,12,11.60
2010,07,28,06,13,11.60
2010,07,28,06,14,11.60
2010,07,28,06,15,11.60
2010,07,28,06,16,11.60
2010,07,28,06,17,11.60
2010,07,28,06,18,11.60
2010,07,28,06,19,11.60
2010,07,28,06,20,11.60
2010,07,28,06,21,11.60
2010,07,28,06,22,11.60
2010,07,28,06,23,11.60
2010,07,28,06,24,11.60
2010,07,28,06,25,11.60
2010,07,28,06,26,11.60
2010,07,28,06,27,11.60
2010,07,28,06,28,11.60
2010,07,28,06,29,11.60
2010,07,28,06,30,11.60
2010,07,28,06,31,11.60
2010,07,28,06,32,11.70
2010,07,28,06,33,11.70
2010,07,28,06,34,11.70
2010,07,28,06,35,11.70
2010,07,28,06,36,11.70
2010,07,28,06,37,11.70
2010,07,28,06,38,11.70
2010,07,28,06,39,11.70
2010,07,28,06,40,11.70
2010,07,28,06,41,11.70
2010,07,28,06,42,11.70
2010,07,28,06,43,11.70
2010,07,28,06,44,11.70
2010,07,28,06,45,11.70
2010,07,28,06,46,11.70
2010,07,28,06,47,11.70
2010,07,28,06,48,11.80
2010,07,28,06,49,11.80
2010,07,28,06,50,11.80
2010,07,28,06,51,11.80
2010,07,28,06,52,11.80
2010,07,28,06,53,11.80
2010,07,28,06,54,11.80
2010,07,28,06,55,11.80
2010,07,28,06,56,11.80
2010,07,28,06,57,11.80
2010,07,28,06,58,11.90
2010,07,28,06,59,11.90
2010,07,28,07,00,11.90
2010,07,28,07,01,11.90
2010,07,28,07,02,11.90
2010,07,28,07,03,11.90
2010,07,28,07,04,11.90
2010,07,28,07,05,12.00
2010,07,28,07,06,12.00
2010,07,28,07,07,12.00
2010,07,28,07,08,12.00
2010,07,28,07,09,12.00
2010,07,28,07,10,12.10
2010,07,28,07,11,12.10
2010,07,28,07,12,12.10
2010,07,28,07,13,12.10
2010,07,28,07,14,12.10
2010,07,28,07,15,12.10
2010,07,28,07,16,12.20
2010,07,28,07,17,12.20
2010,07,28,07,18,12.20
2010,07,28,07,19,12.20
2010,07,28,07,20,12.30
2010,07,28,07,21,12.30
2010,07,28,07,22,12.30
2010,07,28,07,23,12.40
2010,07,28,07,24,12.40
2010,07,28,07,25,12.40
2010,07,28,07,26,12.40
2010,07,28,07,27,12.50
2010,07,28,07,28,12.50
2010,07,28,07,29,12.60
2010,07,28,07,30,12.60
2010,07,28,07,31,12.60
2010,07,28,07,32,12.70
2010,07,28,07,33,12.70
2010,07,28,07,34,12.70
2010,07,28,07,35,12.70
2010,07,28,07,36,12.80
2010,07,28,07,37,12.80
2010,07,28,07,38,12.90
2010,07,28,07,39,12.90
2010,07,28,07,40,13.00
2010,07,28,07,41,13.10
2010,07,28,07,42,13.10
2010,07,28,07,43,13.20
2010,07,28,07,44,13.20
2010,07,28,07,45,13.30
2010,07,28,07,46,13.30
2010,07,28,07,47,13.40
2010,07,28,07,48,13.40
2010,07,28,07,49,13.50
2010,07,28,07,50,13.50
2010,07,28,07,51,13.60
2010,07,28,07,52,13.70
2010,07,28,07,53,13.70
2010,07,28,07,54,13.80
2010,07,28,07,55,13.90
2010,07,28,07,56,13.90
2010,07,28,07,57,14.00
2010,07,28,07,58,14.10
2010,07,28,07,59,14.10
2010,07,28,08,00,14.20
2010,07,28,08,01,14.30
2010,07,28,08,02,14.40
2010,07,28,08,03,14.50
2010,07,28,08,04,14.60
2010,07,28,08,05,14.70
2010,07,28,08,06,14.70
2010,07,28,08,07,14.80
2010,07,28,08,08,14.90
2010,07,28,08,09,15.00
2010,07,28,08,10,15.00
2010,07,28,08,11,15.10
2010,07,28,08,12,15.20
2010,07,28,08,13,15.20
2010,07,28,08,14,15.20
2010,07,28,08,15,15.30
2010,07,28,08,16,15.30
2010,07,28,08,17,15.30
2010,07,28,08,18,15.40
2010,07,28,08,19,15.40
2010,07,28,08,20,15.40
2010,07,28,08,21,15.40
2010,07,28,08,22,15.50
2010,07,28,08,23,15.50
2010,07,28,08,24,15.50
2010,07,28,08,25,15.60
2010,07,28,08,26,15.60
2010,07,28,08,27,15.60
2010,07,28,08,28,15.70
2010,07,28,08,29,15.70
2010,07,28,08,30,15.80
2010,07,28,08,31,15.90
2010,07,28,08,32,15.90
2010,07,28,08,33,15.90
2010,07,28,08,34,15.90
2010,07,28,08,35,16.00
2010,07,28,08,36,16.00
2010,07,28,08,37,16.00
2010,07,28,08,38,15.90
2010,07,28,08,39,15.90
2010,07,28,08,40,15.90
2010,07,28,08,41,16.00
2010,07,28,08,42,16.00
2010,07,28,08,43,16.00
2010,07,28,08,44,16.00
2010,07,28,08,45,16.10
2010,07,28,08,46,16.10
2010,07,28,08,47,16.20
2010,07,28,08,48,16.30
2010,07,28,08,49,16.30
2010,07,28,08,50,16.40
2010,07,28,08,51,16.40
2010,07,28,08,52,16.50
2010,07,28,08,53,16.60
2010,07,28,08,54,16.60
2010,07,28,08,55,16.70
2010,07,28,08,56,16.70
2010,07,28,08,57,16.80
2010,07,28,08,58,16.90
2010,07,28,08,59,16.90
2010,07,28,09,00,17.00
2010,07,28,09,01,17.00
2010,07,28,09,02,17.10
2010,07,28,09,03,17.10
2010,07,28,09,04,17.20
2010,07,28,09,05,17.30
2010,07,28,09,06,17.40
2010,07,28,09,07,17.40
2010,07,28,09,08,17.50
2010,07,28,09,09,17.60
2010,07,28,09,10,17.60
2010,07,28,09,11,17.60
2010,07,28,09,12,17.50
2010,07,28,09,13,17.40
2010,07,28,09,14,17.40
2010,07,28,09,15,17.30
2010,07,28,09,16,17.30
2010,07,28,09,17,17.30
2010,07,28,09,18,17.20
2010,07,28,09,19,17.20
2010,07,28,09,20,17.20
2010,07,28,09,21,17.10
2010,07,28,09,22,17.10
2010,07,28,09,23,17.10
2010,07,28,09,24,17.10
2010,07,28,09,25,17.10
2010,07,28,09,26,17.10
2010,07,28,09,27,17.10
2010,07,28,09,28,17.20
2010,07,28,09,29,17.20
2010,07,28,09,30,17.10
2010,07,28,09,31,17.10
2010,07,28,09,32,17.10
2010,07,28,09,33,17.00
2010,07,28,09,34,16.90
2010,07,28,09,35,16.80
2010,07,28,09,36,16.70
2010,07,28,09,37,16.70
2010,07,28,09,38,16.60
2010,07,28,09,39,16.60
2010,07,28,09,40,16.60
2010,07,28,09,41,16.50
2010,07,28,09,42,16.50
2010,07,28,09,43,16.50
2010,07,28,09,44,16.50
2010,07,28,09,45,16.50
2010,07,28,09,46,16.50
2010,07,28,09,47,16.60
2010,07,28,09,48,16.60
2010,07,28,09,49,16.70
2010,07,28,09,50,16.80
2010,07,28,09,51,16.90
2010,07,28,09,52,16.90
2010,07,28,09,53,17.00
2010,07,28,09,54,17.00
2010,07,28,09,55,17.10
2010,07,28,09,56,17.20
2010,07,28,09,57,17.20
2010,07,28,09,58,17.20
2010,07,28,09,59,17.20
2010,07,28,10,00,17.10
2010,07,28,10,01,17.10
2010,07,28,10,02,17.10
2010,07,28,10,03,17.20
2010,07,28,10,04,17.20
2010,07,28,10,05,17.20
2010,07,28,10,06,17.30
2010,07,28,10,07,17.30
2010,07,28,10,08,17.30
2010,07,28,10,09,17.30
2010,07,28,10,10,17.30
2010,07,28,10,11,17.30
2010,07,28,10,12,17.30
2010,07,28,10,13,17.30
2010,07,28,10,14,17.30
2010,07,28,10,15,17.30
2010,07,28,10,16,17.30
2010,07,28,10,17,17.20
2010,07,28,10,18,17.20
2010,07,28,10,19,17.30
2010,07,28,10,20,17.30
2010,07,28,10,21,17.40
2010,07,28,10,22,17.50
2010,07,28,10,23,17.50
2010,07,28,10,24,17.60
2010,07,28,10,25,17.60
2010,07,28,10,26,17.70
2010,07,28,10,27,17.70
2010,07,28,10,28,17.80
2010,07,28,10,29,17.80
2010,07,28,10,30,17.80
2010,07,28,10,31,17.80
2010,07,28,10,32,17.80
2010,07,28,10,33,17.80
2010,07,28,10,34,17.80
2010,07,28,10,35,17.80
2010,07,28,10,36,17.80
2010,07,28,10,37,17.80
2010,07,28,10,38,17.90
2010,07,28,10,39,17.90
2010,07,28,10,40,17.90
2010,07,28,10,41,17.90
2010,07,28,10,42,17.90
2010,07,28,10,43,17.90
2010,07,28,10,44,17.90
2010,07,28,10,45,17.80
2010,07,28,10,46,17.80
2010,07,28,10,47,17.80
2010,07,28,10,48,17.90
2010,07,28,10,49,17.90
2010,07,28,10,50,18.00
2010,07,28,10,51,18.00
2010,07,28,10,52,18.00
2010,07,28,10,53,17.90
2010,07,28,10,54,17.90
2010,07,28,10,55,17.90
2010,07,28,10,56,17.90
2010,07,28,10,57,17.90
2010,07,28,10,58,17.90
2010,07,28,10,59,17.90
2010,07,28,11,00,17.90
2010,07,28,11,01,17.90
2010,07,28,11,02,17.90
2010,07,28,11,03,17.90
2010,07,28,11,04,17.90
2010,07,28,11,05,18.00
2010,07,28,11,06,18.10
2010,07,28,11,07,18.20
2010,07,28,11,08,18.30
2010,07,28,11,09,18.40
2010,07,28,11,10,18.40
2010,07,28,11,11,18.40
2010,07,28,11,12,18.40
2010,07,28,11,13,18.40
2010,07,28,11,14,18.40
2010,07,28,11,15,18.30
2010,07,28,11,16,18.30
2010,07,28,11,17,18.30
2010,07,28,11,18,18.40
2010,07,28,11,19,18.40
2010,07,28,11,20,18.40
2010,07,28,11,21,18.40
2010,07,28,11,22,18.50
2010,07,28,11,23,18.50
2010,07,28,11,24,18.60
2010,07,28,11,25,18.60
2010,07,28,11,26,18.70
2010,07,28,11,27,18.80
2010,07,28,11,28,18.80
2010,07,28,11,29,18.80
2010,07,28,11,30,18.80
2010,07,28,11,31,18.90
2010,07,28,11,32,18.90
2010,07,28,11,33,18.90
2010,07,28,11,34,18.90
2010,07,28,11,35,18.80
2010,07,28,11,36,18.70
2010,07,28,11,37,18.70
2010,07,28,11,38,18.70
2010,07,28,11,39,18.70
2010,07,28,11,40,18.70
2010,07,28,11,41,18.70
2010,07,28,11,42,18.80
2010,07,28,11,43,19.00
2010,07,28,11,44,19.10
2010,07,28,11,45,19.30
2010,07,28,11,46,19.40
2010,07,28,11,47,19.50
2010,07,28,11,48,19.50
2010,07,28,11,49,19.60
2010,07,28,11,50,19.60
2010,07,28,11,51,19.60
2010,07,28,11,52,19.60
2010,07,28,11,53,19.60
2010,07,28,11,54,19.60
2010,07,28,11,55,19.60
2010,07,28,11,56,19.60
2010,07,28,11,57,19.60
2010,07,28,11,58,19.60
2010,07,28,11,59,19.60
2010,07,28,12,00,19.50
2010,07,28,12,01,19.40
2010,07,28,12,02,19.40
2010,07,28,12,03,19.30
2010,07,28,12,04,19.30
2010,07,28,12,05,19.30
2010,07,28,12,06,19.30
2010,07,28,12,07,19.40
2010,07,28,12,08,19.40
2010,07,28,12,09,19.40
2010,07,28,12,10,19.40
2010,07,28,12,11,19.50
2010,07,28,12,12,19.50
2010,07,28,12,13,19.60
2010,07,28,12,14,19.60
2010,07,28,12,15,19.60
2010,07,28,12,16,19.50
2010,07,28,12,17,19.50
2010,07,28,12,18,19.40
2010,07,28,12,19,19.40
2010,07,28,12,20,19.40
2010,07,28,12,21,19.30
2010,07,28,12,22,19.30
2010,07,28,12,23,19.20
2010,07,28,12,24,19.10
2010,07,28,12,25,19.10
2010,07,28,12,26,19.10
2010,07,28,12,27,19.10
2010,07,28,12,28,19.20
2010,07,28,12,29,19.20
2010,07,28,12,30,19.20
2010,07,28,12,31,19.20
2010,07,28,12,32,19.30
2010,07,28,12,33,19.40
2010,07,28,12,34,19.40
2010,07,28,12,35,19.50
2010,07,28,12,36,19.60
2010,07,28,12,37,19.60
2010,07,28,12,38,19.70
2010,07,28,12,39,19.70
2010,07,28,12,40,19.60
2010,07,28,12,41,19.40
2010,07,28,12,42,19.30
2010,07,28,12,43,19.10
2010,07,28,12,44,18.90
2010,07,28,12,45,18.80
2010,07,28,12,46,18.70
2010,07,28,12,47,18.70
2010,07,28,12,48,18.70
2010,07,28,12,49,18.60
2010,07,28,12,50,18.60
2010,07,28,12,51,18.70
2010,07,28,12,52,18.70
2010,07,28,12,53,18.70
2010,07,28,12,54,18.70
2010,07,28,12,55,18.70
2010,07,28,12,56,18.60
2010,07,28,12,57,18.60
2010,07,28,12,58,18.50
2010,07,28,12,59,18.30
2010,07,28,13,00,18.20
2010,07,28,13,01,18.20
2010,07,28,13,02,18.20
2010,07,28,13,03,18.20
2010,07,28,13,04,18.30
2010,07,28,13,05,18.30
2010,07,28,13,06,18.30
2010,07,28,13,07,18.30
2010,07,28,13,08,18.40
2010,07,28,13,09,18.40
2010,07,28,13,10,18.50
2010,07,28,13,11,18.50
2010,07,28,13,12,18.60
2010,07,28,13,13,18.60
2010,07,28,13,14,18.60
2010,07,28,13,15,18.70
2010,07,28,13,16,18.70
2010,07,28,13,17,18.80
2010,07,28,13,18,18.90
2010,07,28,13,19,18.90
2010,07,28,13,20,19.00
2010,07,28,13,21,19.00
2010,07,28,13,22,18.90
2010,07,28,13,23,18.90
2010,07,28,13,24,18.90
2010,07,28,13,25,19.00
2010,07,28,13,26,19.10
2010,07,28,13,27,19.20
2010,07,28,13,28,19.40
2010,07,28,13,29,19.50
2010,07,28,13,30,19.50
2010,07,28,13,31,19.40
2010,07,28,13,32,19.40
2010,07,28,13,33,19.30
2010,07,28,13,34,19.30
2010,07,28,13,35,19.20
2010,07,28,13,36,19.20
2010,07,28,13,37,19.20
2010,07,28,13,38,19.20
2010,07,28,13,39,19.20
2010,07,28,13,40,19.30
2010,07,28,13,41,19.30
2010,07,28,13,42,19.30
2010,07,28,13,43,19.30
2010,07,28,13,44,19.30
2010,07,28,13,45,19.40
2010,07,28,13,46,19.50
2010,07,28,13,47,19.60
2010,07,28,13,48,19.70
2010,07,28,13,49,19.80
2010,07,28,13,50,19.80
2010,07,28,13,51,19.90
2010,07,28,13,52,20.00
2010,07,28,13,53,20.00
2010,07,28,13,54,20.00
2010,07,28,13,55,19.90
2010,07,28,13,56,19.90
2010,07,28,13,57,19.80
2010,07,28,13,58,19.70
2010,07,28,13,59,19.70
2010,07,28,14,00,19.60
2010,07,28,14,01,19.50
2010,07,28,14,02,19.50
2010,07,28,14,03,19.40
2010,07,28,14,04,19.30
2010,07,28,14,05,19.30
2010,07,28,14,06,19.30
2010,07,28,14,07,19.30
2010,07,28,14,08,19.40
2010,07,28,14,09,19.40
2010,07,28,14,10,19.50
2010,07,28,14,11,19.60
2010,07,28,14,12,19.60
2010,07,28,14,13,19.60
2010,07,28,14,14,19.50
2010,07,28,14,15,19.50
2010,07,28,14,16,19.50
2010,07,28,14,17,19.50
2010,07,28,14,18,19.50
2010,07,28,14,19,19.40
2010,07,28,14,20,19.40
2010,07,28,14,21,19.40
2010,07,28,14,22,19.40
2010,07,28,14,23,19.40
2010,07,28,14,24,19.50
2010,07,28,14,25,19.50
2010,07,28,14,26,19.50
2010,07,28,14,27,19.60
2010,07,28,14,28,19.60
2010,07,28,14,29,19.70
2010,07,28,14,30,19.80
2010,07,28,14,31,20.00
2010,07,28,14,32,20.10
2010,07,28,14,33,20.20
2010,07,28,14,34,20.20
2010,07,28,14,35,20.30
2010,07,28,14,36,20.40
2010,07,28,14,37,20.50
2010,07,28,14,38,20.60
2010,07,28,14,39,20.70
2010,07,28,14,40,20.80
2010,07,28,14,41,20.90
2010,07,28,14,42,20.90
2010,07,28,14,43,21.00
2010,07,28,14,44,21.00
2010,07,28,14,45,20.90
2010,07,28,14,46,20.90
2010,07,28,14,47,20.90
2010,07,28,14,48,20.80
2010,07,28,14,49,20.80
2010,07,28,14,50,20.80
2010,07,28,14,51,20.80
2010,07,28,14,52,20.80
2010,07,28,14,53,20.80
2010,07,28,14,54,20.90
2010,07,28,14,55,20.90
2010,07,28,14,56,20.90
2010,07,28,14,57,21.00
2010,07,28,14,58,21.00
2010,07,28,14,59,21.10
2010,07,28,15,00,21.20
2010,07,28,15,01,21.20
2010,07,28,15,02,21.30
2010,07,28,15,03,21.30
2010,07,28,15,04,21.50
2010,07,28,15,05,21.50
2010,07,28,15,06,21.60
2010,07,28,15,07,21.60
2010,07,28,15,08,21.70
2010,07,28,15,09,21.70
2010,07,28,15,10,21.80
2010,07,28,15,11,21.90
2010,07,28,15,12,22.00
2010,07,28,15,13,22.00
2010,07,28,15,14,22.10
2010,07,28,15,15,22.10
2010,07,28,15,16,22.20
2010,07,28,15,17,22.20
2010,07,28,15,18,22.20
2010,07,28,15,19,22.30
2010,07,28,15,20,22.30
2010,07,28,15,21,22.30
2010,07,28,15,22,22.30
2010,07,28,15,23,22.30
2010,07,28,15,24,22.30
2010,07,28,15,25,22.30
2010,07,28,15,26,22.40
2010,07,28,15,27,22.50
2010,07,28,15,28,22.60
2010,07,28,15,29,22.70
2010,07,28,15,30,22.70
2010,07,28,15,31,22.80
2010,07,28,15,32,22.80
2010,07,28,15,33,22.80
2010,07,28,15,34,22.80
2010,07,28,15,35,22.80
2010,07,28,15,36,22.80
2010,07,28,15,37,22.80
2010,07,28,15,38,22.90
2010,07,28,15,39,22.90
2010,07,28,15,40,22.90
2010,07,28,15,41,22.90
2010,07,28,15,42,22.90
2010,07,28,15,43,22.90
2010,07,28,15,44,22.90
2010,07,28,15,45,22.90
2010,07,28,15,46,22.90
2010,07,28,15,47,22.90
2010,07,28,15,48,22.90
2010,07,28,15,49,23.00
2010,07,28,15,50,23.10
2010,07,28,15,51,23.10
2010,07,28,15,52,23.20
2010,07,28,15,53,23.20
2010,07,28,15,54,23.30
2010,07,28,15,55,23.30
2010,07,28,15,56,23.30
2010,07,28,15,57,23.30
2010,07,28,15,58,23.40
2010,07,28,15,59,23.40
2010,07,28,16,00,23.50
2010,07,28,16,01,23.60
2010,07,28,16,02,23.60
2010,07,28,16,03,23.70
2010,07,28,16,04,23.70
2010,07,28,16,05,23.70
2010,07,28,16,06,23.70
2010,07,28,16,07,23.70
2010,07,28,16,08,23.60
2010,07,28,16,09,23.60
2010,07,28,16,10,23.60
2010,07,28,16,11,23.60
2010,07,28,16,12,23.60
2010,07,28,16,13,23.50
2010,07,28,16,14,23.50
2010,07,28,16,15,23.40
2010,07,28,16,16,23.30
2010,07,28,16,17,23.30
2010,07,28,16,18,23.30
2010,07,28,16,19,23.30
2010,07,28,16,20,23.30
2010,07,28,16,21,23.30
2010,07,28,16,22,23.30
2010,07,28,16,23,23.30
2010,07,28,16,24,23.30
2010,07,28,16,25,23.30
2010,07,28,16,26,23.30
2010,07,28,16,27,23.30
2010,07,28,16,28,23.30
2010,07,28,16,29,23.40
2010,07,28,16,30,23.40
2010,07,28,16,31,23.40
2010,07,28,16,32,23.40
2010,07,28,16,33,23.40
2010,07,28,16,34,23.40
2010,07,28,16,35,23.40
2010,07,28,16,36,23.50
2010,07,28,16,37,23.50
2010,07,28,16,38,23.60
2010,07,28,16,39,23.50
2010,07,28,16,40,23.50
2010,07,28,16,41,23.50
2010,07,28,16,42,23.50
2010,07,28,16,43,23.40
2010,07,28,16,44,23.40
2010,07,28,16,45,23.40
2010,07,28,16,46,23.40
2010,07,28,16,47,23.40
2010,07,28,16,48,23.40
2010,07,28,16,49,23.40
2010,07,28,16,50,23.40
2010,07,28,16,51,23.40
2010,07,28,16,52,23.40
2010,07,28,16,53,23.30
2010,07,28,16,54,23.30
2010,07,28,16,55,23.20
2010,07,28,16,56,23.20
2010,07,28,16,57,23.10
2010,07,28,16,58,23.10
2010,07,28,16,59,23.00
2010,07,28,17,00,23.00
2010,07,28,17,01,22.90
2010,07,28,17,02,22.90
2010,07,28,17,03,22.80
2010,07,28,17,04,22.80
2010,07,28,17,05,22.80
2010,07,28,17,06,22.80
2010,07,28,17,07,22.80
2010,07,28,17,08,22.80
2010,07,28,17,09,22.80
2010,07,28,17,10,22.80
2010,07,28,17,11,22.80
2010,07,28,17,12,22.80
2010,07,28,17,13,22.80
2010,07,28,17,14,22.80
2010,07,28,17,15,22.80
2010,07,28,17,16,22.70
2010,07,28,17,17,22.70
2010,07,28,17,18,22.70
2010,07,28,17,19,22.70